Starlink 32651

operational
NORAD ID: 62314 Int'l Des: 2024-239 Owner: SPXS Country: US Constellation: starlink
LEOCIRCULAR

About Starlink 32651

Description loading...

Live Position

Loading 3D Globe...

Upcoming Passes

Altitude History

Altitude vs Time

uPlot chart will show altitude changes over time

Two-Line Element Set

1 62314U 24239P 26095.19837999 .00036120 00000-0 12247-2 0 9993
2 62314 53.1607 70.7062 0001245 83.4209 276.6934 15.30228012 73449
Epoch: Apr 5, 2026 • Age: 7 hours

Current Status

Altitude 481.3 km
Velocity 7.62 km/s
Sub-Earth Point -20.62°S, 107.11°W
Launch Date Dec 13, 2024
Age 1.3 years
Type internet

Technical Details

Classification Payload
Mass 730.00 kg
Dry Mass 700.00 kg
Total Mass 730.00 kg
Length 0.30 m
Diameter 4.10 m
Span 29.00 m
Shape Box + pan
Manufacturer SPXS
Bus Type Starlink V2M
Phase Status In Orbit
Owner/State SPXS/US

Large Constellations

Loading constellations...